Terminal Aerodrome Forecast
Issued by NWS

Home | Current Version | Previous Version | Text Only | Print | Product List | Glossary On
Versions: 1 2 3 4 5 6 7 8 9 10 11 12 13
597
FTUS45 KABQ 010529
TAFFMN
TAF
KFMN 010529Z 0106/0206 14010KT P6SM VCSH OVC060
     FM010700 12012G20KT 6SM -RA BR SCT030 OVC040
     FM011200 09015G25KT P6SM VCSH SCT020 OVC035
     FM011500 10015G22KT P6SM VCSH BKN025 BKN060
     FM011900 12012G18KT P6SM VCSH BKN040 BKN070=

USA.gov is the U.S. government's official web portal to all federal, state and local government web resources and services.